Muskegon, MI

12:45 AM EST on November 18, 2019 (GMT -0500)
Muskegon County

Weather History for KMKG - September, 2019

Change the Weather History Date:

Friday, September 13, 2019

  Actual Average Record
Temperature  
Mean Temperature 71 °F 63 °F  
Max Temperature 77 °F 73 °F 92 °F (1952)
Min Temperature 65 °F 54 °F 36 °F (1946)
Degree Days  
Heating Degree Days 0 4  
Month to date heating degree days 20 33  
Since 1 July heating degree days 24 63  
Cooling Degree Days 6 2  
Month to date cooling degree days 32 37  
Year to date cooling degree days 577 544  
Growing Degree Days 22 (Base 50)    
Moisture  
Dew Point 64 °F    
Average Humidity 74    
Maximum Humidity 90    
Minimum Humidity 58    
Precipitation  
Precipitation 1.52 in 0.13 in 2.24 in (1962)
Month to date precipitation 3.56 1.62  
Year to date precipitation 30.69 22.20  
Snow  
Snow 0.00 in 0.00 in - ()
Month to date snowfall 0.0 0.0  
Since 1 July snowfall 0.0 0.0  
Since 1 September snowfall 0.0 0.0  
Snow Depth 0.00 in    
Sea Level Pressure  
Sea Level Pressure 30.00 in    
Wind  
Wind Speed 14 mph (South)    
Max Wind Speed 22 mph    
Max Gust Speed 33 mph    
Visibility 7 miles    
Events Rain , Thunderstorm    
T = Trace of Precipitation, MM = Missing Value Source: NWS Daily Summary

Daily Weather History Graph

Daily Weather History Graph

Search for Another Location

Airport or City:

Astronomy

Sep. 13, 2019 Rise Set
Actual Time 7:22 AM EDT 7:58 PM EDT
Civil Twilight 6:53 AM EDT 8:27 PM EDT
Nautical Twilight 6:19 AM EDT 9:01 PM EDT
Astronomical Twilight 5:44 AM EDT 9:36 PM EDT
Moon 8:14 PM EDT (9/13) 6:35 AM EDT (9/13)
Length of Visible Light 13h 34m
Length of Day
12h 36m
Full, 100% of the Moon is Illuminated
Sep 13
Full
Sep 14
Full
Sep 21
Last Quarter
Sep 28
New
Oct 5
First Quarter

Hourly Weather History & Observations

Time (EDT) Temp. Dew Point Humidity Pressure Visibility Wind Dir Wind Speed Gust Speed Precip Events Conditions
12:55 AM 66.9 °F 63.0 °F 87% 30.07 in 8.0 mi ESE 16.1 mph 25.3 mph N/A   Overcast
1:55 AM 68.0 °F 64.0 °F 87% 30.04 in 7.0 mi ESE 18.4 mph - N/A   Overcast
2:19 AM 69.1 °F 64.0 °F 84% 30.04 in 9.0 mi ESE 16.1 mph - N/A Thunderstorm Overcast
2:46 AM 69.1 °F 64.0 °F 84% 30.02 in 10.0 mi ESE 15.0 mph - 0.00 in Thunderstorm Overcast
2:55 AM 69.1 °F 64.9 °F 87% 30.01 in 10.0 mi ESE 16.1 mph - 0.00 in   Overcast
3:39 AM 69.1 °F 64.9 °F 87% 30.00 in 10.0 mi ESE 16.1 mph - N/A   Overcast
3:55 AM 69.1 °F 64.9 °F 87% 29.99 in 10.0 mi ESE 16.1 mph - N/A   Overcast
4:08 AM 69.1 °F 64.9 °F 87% 29.99 in 10.0 mi SE 18.4 mph - 0.01 in Rain , Thunderstorm Light Thunderstorms and Rain
4:36 AM 69.1 °F 64.9 °F 87% 30.04 in 2.5 mi West 11.5 mph 31.1 mph 0.15 in Rain , Thunderstorm Thunderstorms and Rain
4:39 AM 69.1 °F 64.9 °F 87% 30.05 in 1.8 mi WSW 5.8 mph 31.1 mph 0.28 in Rain , Thunderstorm Heavy Thunderstorms and Rain
4:53 AM 69.8 °F 64.4 °F 83% 30.03 in 2.0 mi SSW 9.2 mph - 0.44 in Rain , Thunderstorm Heavy Thunderstorms and Rain
4:55 AM 69.1 °F 64.9 °F 87% 30.03 in 2.5 mi SSW 9.2 mph - 0.45 in Rain , Thunderstorm Thunderstorms and Rain
5:02 AM 69.1 °F 66.0 °F 90% 30.03 in 5.0 mi South 4.6 mph - 0.02 in Rain , Thunderstorm Thunderstorms and Rain
5:15 AM 69.1 °F 64.9 °F 87% 30.03 in 5.0 mi SSW 3.5 mph - 0.04 in Rain , Thunderstorm Rain
5:55 AM 68.0 °F 64.9 °F 90% 30.01 in 7.0 mi ESE 8.1 mph - 0.21 in Rain Light Rain
6:11 AM 68.0 °F 64.9 °F 90% 30.00 in 6.0 mi East 6.9 mph - 0.04 in Rain , Thunderstorm Thunderstorms and Rain
6:29 AM 68.0 °F 64.9 °F 90% 30.04 in 1.8 mi SW 8.1 mph - 0.20 in Rain , Thunderstorm Heavy Thunderstorms and Rain
6:45 AM 68.0 °F 64.9 °F 90% 30.04 in 1.5 mi South 5.8 mph - 0.49 in Rain , Thunderstorm Heavy Thunderstorms and Rain
6:55 AM 68.0 °F 64.9 °F 90% 30.01 in 2.0 mi ESE 6.9 mph - 0.57 in Rain , Thunderstorm Thunderstorms and Rain
7:18 AM 68.0 °F 64.9 °F 90% 30.02 in 2.5 mi SSE 9.2 mph - 0.08 in Rain , Thunderstorm Thunderstorms and Rain
7:38 AM 68.0 °F 64.9 °F 90% 30.01 in 2.5 mi SE 6.9 mph - 0.12 in Rain Rain
7:48 AM 69.1 °F 66.0 °F 90% 30.01 in 2.5 mi SSE 5.8 mph - 0.16 in Rain Rain
7:55 AM 69.1 °F 66.0 °F 90% 30.01 in 2.5 mi SE 9.2 mph - 0.18 in Rain Rain
8:05 AM 69.1 °F 66.0 °F 90% 29.99 in 2.5 mi SE 13.8 mph - 0.03 in Rain Rain
8:16 AM 69.1 °F 66.0 °F 90% 29.99 in 2.5 mi SE 13.8 mph - 0.07 in Rain Rain
8:55 AM 69.1 °F 66.0 °F 90% 29.97 in 10.0 mi SE 12.7 mph - 0.11 in   Overcast
9:02 AM 69.1 °F 64.9 °F 87% 29.97 in 10.0 mi SE 17.3 mph - N/A   Overcast
9:55 AM 70.0 °F 66.0 °F 87% 29.96 in 10.0 mi SSE 12.7 mph - 0.00 in   Overcast
10:49 AM 71.6 °F 66.2 °F 83% 29.96 in 10.0 mi South 12.7 mph 21.9 mph 0.00 in   Overcast
10:55 AM 72.0 °F 66.9 °F 84% 29.96 in 10.0 mi South 10.4 mph - 0.00 in   Overcast
11:29 AM 72.0 °F 68.0 °F 87% 29.96 in 2.5 mi SSW 16.1 mph 27.6 mph N/A   Overcast
11:36 AM 72.0 °F 68.0 °F 87% 29.97 in 2.5 mi South 18.4 mph 28.8 mph N/A   Overcast
11:48 AM 72.0 °F 66.9 °F 84% 29.97 in 2.5 mi SSW 17.3 mph 27.6 mph 0.00 in Rain Light Rain
11:55 AM 72.0 °F 68.0 °F 87% 29.96 in 2.5 mi SSW 15.0 mph 25.3 mph 0.00 in Rain Light Rain
12:55 PM 75.0 °F 69.1 °F 82% 29.95 in 9.0 mi SSW 16.1 mph 25.3 mph 0.00 in   Overcast
1:55 PM 75.9 °F 68.0 °F 76% 29.95 in 10.0 mi SSW 19.6 mph 27.6 mph N/A   Mostly Cloudy
2:05 PM 75.9 °F 68.0 °F 76% 29.96 in 10.0 mi SSW 17.3 mph 26.5 mph N/A   Mostly Cloudy
2:55 PM 75.9 °F 66.9 °F 74% 29.96 in 10.0 mi SSW 19.6 mph 28.8 mph N/A   Scattered Clouds
3:55 PM 77.0 °F 66.0 °F 69% 29.95 in 10.0 mi SW 18.4 mph 27.6 mph N/A   Scattered Clouds
4:55 PM 73.9 °F 61.0 °F 64% 29.96 in 10.0 mi WSW 15.0 mph 27.6 mph 0.00 in   Mostly Cloudy
5:55 PM 72.0 °F 60.1 °F 66% 29.97 in 10.0 mi WSW 12.7 mph 23.0 mph 0.00 in Rain Light Rain
6:55 PM 69.1 °F 55.9 °F 63% 30.00 in 10.0 mi West 16.1 mph 25.3 mph 0.00 in   Mostly Cloudy
7:55 PM 66.9 °F 54.0 °F 63% 30.02 in 10.0 mi West 12.7 mph 26.5 mph N/A   Mostly Cloudy
8:55 PM 66.9 °F 53.1 °F 61% 30.04 in 10.0 mi West 13.8 mph 23.0 mph N/A   Overcast
9:55 PM 66.0 °F 51.1 °F 59% 30.06 in 10.0 mi West 11.5 mph - N/A   Scattered Clouds
10:55 PM 66.0 °F 51.1 °F 59% 30.07 in 10.0 mi West 16.1 mph 24.2 mph N/A   Mostly Cloudy
11:55 PM 64.9 °F 52.0 °F 63% 30.08 in 10.0 mi West 12.7 mph 20.7 mph 0.00 in Rain Light Rain